Akron, OH

2:30 PM EDT on May 25, 2017 (GMT -0400)
Akron Fulton International

Weather History for KAKR - March, 2013

Change the Weather History Date:

Saturday, March 30, 2013

  Actual Average (KCAK) Record (KCAK)
Temperature  
Mean Temperature 38 °F -  
Max Temperature 54 °F 54 °F 81 °F (1986)
Min Temperature 24 °F 35 °F 12 °F (1887)
Degree Days  
Heating Degree Days 26    
Moisture  
Dew Point 22 °F    
Average Humidity 54    
Maximum Humidity 81    
Minimum Humidity 28    
Precipitation  
Precipitation 0.00 in - - ()
Sea Level Pressure  
Sea Level Pressure 30.15 in    
Wind  
Wind Speed 2 mph (South)    
Max Wind Speed 13 mph    
Max Gust Speed 16 mph    
Visibility 10 miles    
Events      
Averages and records for this station are not official NWS values.
T = Trace of Precipitation, MM = Missing Value Source: NWS Daily Summary

Daily Weather History Graph

Daily Weather History Graph

Search for Another Location

Airport or City:

Trip Planner

Search our weather history database for the weather conditions in past years. The results will help you decide how hot, cold, wet, or windy it might be!

Date:

Astronomy

Mar. 30, 2013 Rise Set
Actual Time 7:12 AM EDT 7:48 PM EDT
Civil Twilight 6:44 AM EDT 8:16 PM EDT
Nautical Twilight 6:11 AM EDT 8:49 PM EDT
Astronomical Twilight 5:38 AM EDT 9:23 PM EDT
Moon 11:56 PM EDT (3/30) 9:04 AM EDT (3/30)
Length of Visible Light 13h 32m
Length of Day
12h 36m
Waning Gibbous, 86% of the Moon is Illuminated
Mar 30
Waning Gibbous
Apr 3
Last Quarter
Apr 10
New
Apr 18
First Quarter
Apr 25
Full

Hourly Weather History & Observations

Time (EDT) Temp. Windchill Dew Point Humidity Pressure Visibility Wind Dir Wind Speed Gust Speed Precip Events Conditions
12:54 AM 28.0 °F - 21.9 °F 78% 30.22 in 10.0 mi Calm Calm - N/A   Clear
1:54 AM 28.0 °F - 21.9 °F 78% 30.22 in 9.0 mi Calm Calm - N/A   Clear
2:54 AM 27.0 °F - 21.0 °F 78% 30.22 in 9.0 mi Calm Calm - N/A   Clear
3:54 AM 28.0 °F - 21.9 °F 78% 30.22 in 7.0 mi Calm Calm - N/A   Clear
4:54 AM 26.1 °F - 21.0 °F 81% 30.22 in 8.0 mi Calm Calm - N/A   Clear
5:54 AM 25.0 °F - 19.9 °F 81% 30.22 in 8.0 mi Calm Calm - N/A   Clear
6:54 AM 24.1 °F - 19.0 °F 81% 30.23 in 9.0 mi Calm Calm - N/A   Clear
7:54 AM 25.0 °F - 19.9 °F 81% 30.24 in 8.0 mi Calm Calm - N/A   Clear
8:54 AM 34.0 °F - 27.0 °F 75% 30.25 in 10.0 mi Calm Calm - N/A   Clear
9:54 AM 43.0 °F 37.7 °F 23.0 °F 45% 30.23 in 10.0 mi SSW 9.2 mph - N/A   Clear
10:54 AM 46.0 °F 40.2 °F 23.0 °F 40% 30.22 in 10.0 mi WSW 12.7 mph - N/A   Clear
11:54 AM 48.0 °F - 19.9 °F 33% 30.20 in 10.0 mi Variable 4.6 mph - N/A   Clear
12:54 PM 50.0 °F - 21.0 °F 32% 30.19 in 10.0 mi South 5.8 mph - N/A   Clear
1:54 PM 52.0 °F - 21.0 °F 30% 30.17 in 10.0 mi WSW 12.7 mph 16.1 mph N/A   Clear
2:54 PM 53.1 °F - 21.9 °F 30% 30.14 in 10.0 mi SW 8.1 mph - N/A   Clear
3:54 PM 52.0 °F - 19.9 °F 28% 30.12 in 10.0 mi SSE 5.8 mph - N/A   Clear
4:54 PM 53.1 °F - 21.9 °F 30% 30.10 in 10.0 mi Calm Calm - N/A   Clear
5:54 PM 52.0 °F - 24.1 °F 34% 30.08 in 10.0 mi South 10.4 mph - N/A   Clear
6:54 PM 50.0 °F - 25.0 °F 38% 30.07 in 10.0 mi South 5.8 mph - N/A   Clear
7:54 PM 50.0 °F - 23.0 °F 35% 30.05 in 10.0 mi Calm Calm - N/A   Clear
8:54 PM 46.0 °F - 26.1 °F 46% 30.05 in 10.0 mi Calm Calm - N/A   Clear
9:54 PM 42.1 °F 40.2 °F 27.0 °F 55% 30.04 in 10.0 mi SSE 3.5 mph - N/A   Clear
10:54 PM 41.0 °F 39.0 °F 26.1 °F 55% 30.02 in 10.0 mi SE 3.5 mph - N/A   Clear
11:54 PM 45.0 °F 43.5 °F 23.0 °F 42% 29.99 in 10.0 mi SE 3.5 mph - N/A   Clear